Weather Roundup
Issued by NWS

Home | Current Version | Previous Version | Graphics & Text | Print | Product List | Glossary Off
Versions: 1 2 3 4 5 6 7 8 9 10 11 12 13 14 15 16 17 18 19 20 21 22 23 24 25 26 27 28 29 30 31 32 33 34 35 36 37 38 39 40 41 42 43 44 45 46 47 48 49 50

000
NZUS93 KARX 181859
HRRWXR

CURRENT HOURLY OBSERVATIONS ACROSS
MUCH OF THE UPPER MISSISSIPPI VALLEY
NATIONAL WEATHER SERVICE LA CROSSE WI
100 PM CST WED JAN 18 2017


...SOUTHEAST MINNESOTA...


CITY           SKY/WX    TMP DP  RH WIND       PRES   REMARKS
ROCHESTER      CLOUDY    31  30  96 S22       29.91F FOG     WCI  18
ROCHESTER/MAYO MOCLDY    34  33  95 S12G22    29.92F WCI  25
WINONA           N/A     36  30  80 S5        29.95F WCI  32
AUSTIN         CLOUDY    32  30  93 S14       29.94R FOG     WCI  22
ALBERT LEA     SUNNY     36  36 100 S12G18    29.91F WCI  27
DODGE CENTER   CLOUDY    34  30  86 S17       29.90F FOG     WCI  23
PRESTON        CLOUDY    31  29  94 S17       29.94F FOG     WCI  19
OWATONNA       SUNNY     36  30  80 S15       29.89F WCI  26
FARIBAULT      SUNNY     37  32  81 S10       29.90S WCI  30
$$

...ELSEWHERE IN MINNESOTA...


CITY           SKY/WX    TMP DP  RH WIND       PRES   REMARKS
MINNEAPOLIS    SUNNY     40  30  67 SW13G22   29.87F WCI  32
INTNL FALLS    SUNNY     35  23  61 CALM      29.74S
DULUTH         SUNNY     37  26  64 SW9       29.76S WCI  30
RED WING       SUNNY     37  28  70 S7        29.92S WCI  32
REDWOOD FALLS  SUNNY     37  30  75 S10       29.83F WCI  30
MANKATO        SUNNY     38  32  79 S10       29.89F WCI  31
WORTHINGTON    SUNNY     38  32  79 SW16      29.85F WCI  29
FAIRMONT       NOT AVBL
$$

...SOUTHWEST WISCONSIN...


CITY           SKY/WX    TMP DP  RH WIND       PRES   REMARKS
LA CROSSE      CLOUDY    36  30  79 S10       29.97F WCI  28
PRAIRIE DU CHI CLOUDY    34  30  86 S8        30.02F WCI  27
BOSCOBEL       CLOUDY    35  30  82 SW10      30.01F WCI  27
LONE ROCK      NOT AVBL
PLATTEVILLE    CLOUDY    32  32 100 S13       30.04F WCI  22
FORT MC COY    SUNNY     37  31  78 S9        29.98S WCI  31
MAUSTON-NEW LI CLEAR     38  31  77 S10G17    29.97R HAZE    WCI  30
VIROQUA        CLOUDY    32  31  97 SW9       29.97F WCI  24
WIS DELLS      CLOUDY    35  31  83 W15G21    30.00R WCI  26
$$

...ELSEWHERE IN WISCONSIN...


CITY           SKY/WX    TMP DP  RH WIND       PRES   REMARKS
MILWAUKEE      PTSUNNY   37  32  82 SW13      30.02R WCI  29
MADISON        CLOUDY    33  30  88 SW7G18    30.01F WCI  27
GREEN BAY      CLOUDY    36  33  89 SW13      29.94F WCI  27
EAU CLAIRE     NOT AVBL
BLACK RVR FLS  FAIR      40  29  65 SW9       29.94F WCI  34
MEDFORD        SUNNY     32  29  87 S9        29.87F WCI  24
WAUSAU         SUNNY     36  30  79 SW9       29.88F WCI  29
WIS RAPIDS     SUNNY     38  32  79 SW12      29.93F WCI  30
MARSHFIELD     SUNNY     38  30  73 SW8       29.89S WCI  32
RICE LAKE      SUNNY     38  29  71 S9        29.88R WCI  31
$$

...NORTHEAST IOWA...


CITY           SKY/WX    TMP DP  RH WIND       PRES   REMARKS
WATERLOO       CLOUDY    33  31  92 S8        30.00F FOG     WCI  26
DUBUQUE        CLOUDY    33  31  92 SW14      30.02F WCI  23
DECORAH        CLOUDY    32  30  93 S10G20    29.97S FOG     WCI  24
MASON CITY     SUNNY     34  31  88 S13       29.94F WCI  25
CHARLES CITY   CLOUDY    32  32 100 S16       29.97F FOG     WCI  21
OELWEIN        FOG       32  32 100 S12G18    30.01F VSB 1   WCI  23
$$

...ELSEWHERE IN IOWA...


CITY           SKY/WX    TMP DP  RH WIND       PRES   REMARKS
DES MOINES     MOSUNNY   46  37  71 S12       30.00F
IOWA CITY      CLOUDY    36  32  85 SW10      30.08F WCI  28
FORT DODGE     SUNNY     41  34  75 S14       29.94F
MARSHALLTOWN   CLOUDY    36  35  96 S9        29.99F WCI  29
CEDAR RAPIDS   CLOUDY    33  32  96 S15       30.03F FOG     WCI  23
$$

...NORTHERN ILLINOIS...


CITY           SKY/WX    TMP DP  RH WIND       PRES   REMARKS
CHICAGO-OHARE  CLOUDY    34  32  92 SW13G21   30.07F FOG     WCI  25
CHICAGO-MIDWAY CLOUDY    33  32  96 SW14G21   30.08F FOG     WCI  23
MOLINE         CLOUDY    37  32  82 SW12      30.07F WCI  29
ROCKFORD       CLOUDY    34  30  85 SW12      30.08F WCI  25
PEORIA         CLOUDY    37  33  85 SW7       30.12F WCI  32
$$

NOTE: "FAIR" INDICATES FEW OR NO CLOUDS BELOW 12,000 FEET WITH NO
SIGNIFICANT WEATHER AND/OR OBSTRUCTIONS TO VISIBILITY. WIND
SPEEDS ARE IN MILES-PER-HOUR.




USA.gov is the U.S. government's official web portal to all federal, state and local government web resources and services.